Regional Weather Roundup
Issued by NWS

Home | Current Version | Previous Version | Text Only | Print | Product List | Glossary Off
Versions: 1 2 3 4 5 6 7 8 9 10 11 12 13 14 15 16 17 18 19 20 21 22 23 24 25 26 27 28 29 30 31 32 33 34 35 36 37 38 39 40 41 42 43 44 45 46 47 48 49 50

000
ASUS43 KOAX 241110
RWRNE

WEATHER ROUNDUP FOR NEBRASKA
NATIONAL WEATHER SERVICE OMAHA NE
600 AM CDT SUN JUL 24 2016

NOTES: SATELLITE DATA IS BEING USED TO AUGMENT CLOUD COVER ABOVE
       12000 FEET.
       "FAIR" INDICATES FEW OR NO CLOUDS BELOW 12,000 FEET WITH NO
       SIGNIFICANT WEATHER AND/OR OBSTRUCTIONS TO VISIBILITY.

  * THESE STATIONS DO NOT REPORT WEATHER SUCH AS RAIN...SNOW OR FOG.

NEZ001>004-019>022-054>056-241200-
NEBRASKA PANHANDLE

CITY           SKY/WX    TMP DP  RH WIND       PRES   REMARKS
SCOTTSBLUFF    PTCLDY    63  56  78 CALM      30.05F
ALLIANCE       CLOUDY    61  57  87 N5        30.05F
CHADRON        MOCLDY    60  50  69 E3        30.06F
KIMBALL        PTCLDY    63  56  79 SE15G23   30.12R
SIDNEY         CLOUDY    63  55  75 W5        30.13R
$$

NEZ057>060-069>072-079>082-241200-
SOUTHWEST NEBRASKA

CITY           SKY/WX    TMP DP  RH WIND       PRES   REMARKS
NORTH PLATTE   CLOUDY    68  59  73 E8        29.98F
IMPERIAL       CLOUDY    72  56  57 CALM      30.03R
LEXINGTON      CLOUDY    68  62  79 NE7       29.97F
MCCOOK         CLOUDY    70  62  76 SE5       29.98R
OGALLALA       CLOUDY    71  56  58 NE5       30.02F
$$

NEZ005>010-023>029-035>040-094-241200-
NORTH CENTRAL NEBRASKA

CITY           SKY/WX    TMP DP  RH WIND       PRES   REMARKS
VALENTINE      MOCLDY    62  58  86 CALM      30.03R
AINSWORTH      MOCLDY    65  61  86 N3        30.02R
BROKEN BOW     CLOUDY    64  61  90 N9        29.99R
O`NEILL        MOCLDY    64  62  93 W8        29.98R
ORD            CLEAR     66  62  87 NW8       29.97R
THEDFORD       CLOUDY    66  59  78 CALM      30.03S
$$

NEZ041-046>049-061>064-073>077-083>087-241200-
SOUTH CENTRAL NEBRASKA

CITY           SKY/WX    TMP DP  RH WIND       PRES   REMARKS
GRAND ISLAND   CLEAR     69  65  86 NE7       29.94R
AURORA         CLEAR     70  68  93 NE5       29.93R
HASTINGS       CLEAR     71  68  90 NE7       29.94R
HEBRON         PTCLDY    75  71  86 NE8       29.90R
HOLDREGE       MOCLDY    69  65  86 NE5       29.96R
KEARNEY *      PTCLDY    68  63  83 NE3       29.96R
YORK           CLEAR     72  68  88 CALM      29.93R
$$

NEZ011>018-030>034-042>045-241200-
NORTHEAST NEBRASKA

CITY           SKY/WX    TMP DP  RH WIND       PRES   REMARKS
NORFOLK        CLEAR     68  62  81 VRB3      29.92S
ALBION         CLEAR     67  62  82 NW3       29.94R
BLAIR          CLEAR     77  73  87 N14       29.88R
FREMONT        CLEAR     74  69  83 NW3       29.89R
TEKAMAH        CLEAR     75  71  87 N12       29.87R
WAYNE          CLEAR     64  62  94 CALM      29.92S
$$

NEZ050>053-065>068-078-088>093-241200-
SOUTHEAST NEBRASKA

CITY           SKY/WX    TMP DP  RH WIND       PRES   REMARKS
LINCOLN        CLEAR     75  70  84 N7        29.90R
OMAHA EPPLEY   PTCLDY    78  74  87 N8        29.85R
BEATRICE       MOCLDY    73  69  89 CALM      29.90R
FALLS CITY     CLOUDY    80  71  74 W8        29.84R
NEBRASKA CITY  CLOUDY    77  71  83 W8        29.87R
PLATTSMOUTH    PTCLDY    76  73  93 NW8       29.87R
$$

NEZ044-045-051>053-067-241200-
OMAHA AREA

CITY           SKY/WX    TMP DP  RH WIND       PRES   REMARKS
OMAHA EPPLEY   PTCLDY    78  74  87 N8        29.85R
BLAIR          CLEAR     77  73  87 N14       29.88R
FREMONT        CLEAR     74  69  83 NW3       29.89R
MILLARD        CLEAR     80  74  80 N5        29.86R
OFFUTT AFB     PTCLDY    79  76  90 N9        29.86R
PLATTSMOUTH    PTCLDY    76  73  93 NW8       29.87R
WAHOO          FAIR      74  69  87 N6        29.89R
$$



USA.gov is the U.S. government's official web portal to all federal, state and local government web resources and services.